Tracking 27122 objects as of 24-Mar-2023
HD Live streaming from Space Station
objects crossing your sky now

STARLINK-1837

Track STARLINK-1837 now!
10-day predictions
STARLINK-1837 is classified as:


NORAD ID: 47128
Int'l Code: 2020-088G
Perigee: 553.4 km
Apogee: 555.3 km
Inclination: 53.1 °
Period: 95.6 minutes
Semi major axis: 6925 km
RCS: Unknown
Launch date: November 25, 2020
Source: United States (US)
Launch site: AIR FORCE EASTERN TEST RANGE (AFETR)
Your satellite tracking list
Your tracking list is empty




NASA's NSSDC Master Catalog

Two Line Element Set (TLE):
1 47128U 20088G   23082.74585801  .00009640  00000-0  66500-3 0  9992
2 47128  53.0536  98.6560 0001338  96.7456 263.3685 15.06408057129047
Source of the keplerian elements: AFSPC